Weather History for KLGU - December, 2013

Change the Weather History Date:

Monday, December 2, 2013

  Actual Average Record
Temperature  
Mean Temperature 46 °F -  
Max Temperature 53 °F 37 °F 61 °F (1973)
Min Temperature 37 °F 19 °F -2 °F (1991)
Degree Days  
Heating Degree Days 19    
Moisture  
Dew Point 27 °F    
Average Humidity 42    
Maximum Humidity 67    
Minimum Humidity 31    
Precipitation  
Precipitation 0.00 in - - ()
Sea Level Pressure  
Sea Level Pressure 29.75 in    
Wind  
Wind Speed 12 mph (SW)    
Max Wind Speed 25 mph    
Max Gust Speed 38 mph    
Visibility 10 miles    
Events Rain    
Averages and records for this station are not official NWS values.
T = Trace of Precipitation, MM = Missing Value Source: NWS Daily Summary

Daily Weather History Graph

Daily Weather History Graph

Search for Another Location

Airport or City:

Trip Planner

Search our weather history database for the weather conditions in past years. The results will help you decide how hot, cold, wet, or windy it might be!

Date:

Astronomy

Dec. 02, 2013 Rise Set
Actual Time 7:36 AM MST 4:57 PM MST
Civil Twilight 7:05 AM MST 5:28 PM MST
Nautical Twilight 6:30 AM MST 6:02 PM MST
Astronomical Twilight 5:57 AM MST 6:36 PM MST
Moon 7:05 AM MST (12/2) 5:04 PM MST (12/2)
Length of Visible Light 10h 22m
Length of Day
9h 20m
Waning Crescent, 0% of the Moon is Illuminated
Dec 2
Waning Crescent
Dec 2
New
Dec 9
First Quarter
Dec 17
Full
Dec 25
Last Quarter

Hourly Weather History & Observations

Time (MST) Temp. Windchill Dew Point Humidity Pressure Visibility Wind Dir Wind Speed Gust Speed Precip Events Conditions
12:51 AM 50.0 °F - 28.9 °F 44% 30.01 in 10.0 mi South 10.4 mph - N/A   Overcast
1:51 AM 50.0 °F - 28.9 °F 44% 29.98 in 10.0 mi South 9.2 mph - N/A   Overcast
2:51 AM 50.0 °F - 28.0 °F 43% 29.96 in 10.0 mi South 12.7 mph - N/A   Overcast
3:51 AM 50.0 °F - 28.0 °F 43% 29.92 in 10.0 mi SSE 11.5 mph - N/A   Overcast
4:51 AM 50.0 °F - 28.0 °F 43% 29.89 in 10.0 mi SSE 8.1 mph - N/A   Overcast
5:51 AM 50.0 °F - 27.0 °F 41% 29.86 in 10.0 mi SE 3.5 mph - N/A   Overcast
6:51 AM 51.1 °F - 26.1 °F 38% 29.86 in 10.0 mi North - - N/A   Overcast
7:51 AM 51.1 °F - 26.1 °F 38% 29.84 in 10.0 mi SSW 10.4 mph - N/A   Overcast
8:51 AM 50.0 °F - 26.1 °F 39% 29.83 in 10.0 mi South 8.1 mph - N/A   Overcast
9:51 AM 50.0 °F - 26.1 °F 39% 29.80 in 10.0 mi South 10.4 mph - N/A   Overcast
10:51 AM 51.1 °F - 25.0 °F 36% 29.79 in 10.0 mi SSW 9.2 mph - N/A   Overcast
11:51 AM 53.1 °F - 23.0 °F 31% 29.75 in 10.0 mi SW 11.5 mph - N/A   Overcast
12:51 PM 53.1 °F - 23.0 °F 31% 29.71 in 10.0 mi SSW 8.1 mph - N/A   Overcast
1:51 PM 53.1 °F - 23.0 °F 31% 29.68 in 10.0 mi SW 25.3 mph 35.7 mph N/A   Overcast
2:51 PM 52.0 °F - 25.0 °F 35% 29.68 in 10.0 mi WSW 21.9 mph 33.4 mph N/A   Overcast
3:51 PM 52.0 °F - 25.0 °F 35% 29.66 in 10.0 mi WSW 21.9 mph 38.0 mph 0.00 in Rain Light Rain
4:42 PM 50.0 °F - 27.0 °F 41% 29.70 in 10.0 mi SSE 12.7 mph - 0.00 in   Overcast
4:51 PM 51.1 °F - 26.1 °F 38% 29.63 in 10.0 mi SSW 10.4 mph 21.9 mph 0.00 in   Overcast
5:51 PM 48.9 °F - 28.0 °F 44% 29.62 in 10.0 mi SW 5.8 mph - N/A   Overcast
6:51 PM 48.9 °F - 27.0 °F 43% 29.60 in 10.0 mi WSW 9.2 mph - N/A   Overcast
7:51 PM 51.1 °F - 25.0 °F 36% 29.58 in 10.0 mi West 19.6 mph 34.5 mph N/A   Overcast
8:51 PM 48.0 °F - 28.0 °F 46% 29.57 in 10.0 mi West 9.2 mph - N/A   Overcast
9:51 PM 46.9 °F - 30.0 °F 52% 29.57 in 10.0 mi WNW 12.7 mph - N/A   Overcast
10:40 PM 41.0 °F 30.7 °F 30.9 °F 67% 29.66 in 10.0 mi NW 25.3 mph 29.9 mph N/A   Overcast
10:51 PM 39.9 °F 30.0 °F 27.0 °F 60% 29.63 in 10.0 mi NW 21.9 mph 31.1 mph N/A   Overcast
11:51 PM 37.0 °F 26.7 °F 23.0 °F 57% 29.65 in 10.0 mi North 19.6 mph 24.2 mph N/A   Overcast